Change the Weather History Date:

Saturday, August 24, 2013

  Actual Average Record
Temperature  
Mean Temperature 62 °F -  
Max Temperature 77 °F 76 °F 89 °F (1954)
Min Temperature 48 °F 59 °F 42 °F (1971)
Degree Days  
Heating Degree Days 4    
Growing Degree Days 12 (Base 50)    
Moisture  
Dew Point 51 °F    
Average Humidity 67    
Maximum Humidity 93    
Minimum Humidity 38    
Precipitation  
Precipitation 0.00 in - - ()
Sea Level Pressure  
Sea Level Pressure 30.30 in    
Wind  
Wind Speed 6 mph (WSW)    
Max Wind Speed 10 mph    
Max Gust Speed -    
Visibility 10 miles    
Events      
Averages and records for this station are not official NWS values.
T = Trace of Precipitation, MM = Missing Value Source: NWS Daily Summary

Daily Weather History Graph

Daily Weather History Graph

Search for Another Location

Airport or City:

Trip Planner

Search our weather history database for the weather conditions in past years. The results will help you decide how hot, cold, wet, or windy it might be!

Date:

Astronomy

Aug. 24, 2013 Rise Set
Actual Time 6:33 AM EDT 8:04 PM EDT
Civil Twilight 6:04 AM EDT 8:33 PM EDT
Nautical Twilight 5:28 AM EDT 9:09 PM EDT
Astronomical Twilight 4:50 AM EDT 9:46 PM EDT
Moon 9:50 PM EDT (8/24) 10:38 AM EDT (8/24)
Length of Visible Light 14h 29m
Length of Day
13h 30m
Waning Gibbous, 84% of the Moon is Illuminated
Aug 24
Waning Gibbous
Aug 28
Last Quarter
Sep 5
New
Sep 12
First Quarter
Sep 19
Full

Hourly Weather History & Observations

Time (EDT) Temp. Dew Point Humidity Pressure Visibility Wind Dir Wind Speed Gust Speed Precip Events Conditions
12:53 AM 55.0 °F 51.1 °F 86% 30.23 in 10.0 mi Variable 4.6 mph - N/A   Clear
1:53 AM 54.0 °F 48.9 °F 83% 30.23 in 10.0 mi West 3.5 mph - N/A   Clear
2:53 AM 53.1 °F 48.0 °F 83% 30.23 in 10.0 mi WNW 5.8 mph - N/A   Clear
3:53 AM 52.0 °F 48.9 °F 89% 30.25 in 10.0 mi West 6.9 mph - N/A   Clear
4:53 AM 48.9 °F 46.9 °F 93% 30.27 in 10.0 mi SSW 6.9 mph - N/A   Clear
5:53 AM 50.0 °F 46.0 °F 86% 30.27 in 10.0 mi Variable 4.6 mph - N/A   Clear
6:53 AM 54.0 °F 48.9 °F 83% 30.30 in 10.0 mi Variable 4.6 mph - N/A   Clear
7:53 AM 60.1 °F 53.1 °F 78% 30.32 in 10.0 mi South 8.1 mph - N/A   Clear
8:53 AM 64.9 °F 54.0 °F 68% 30.34 in 10.0 mi South 10.4 mph - N/A   Clear
9:53 AM 68.0 °F 54.0 °F 61% 30.35 in 10.0 mi SE 4.6 mph - N/A   Clear
10:53 AM 71.1 °F 54.0 °F 55% 30.35 in 10.0 mi Variable 5.8 mph - N/A   Clear
11:53 AM 73.0 °F 51.1 °F 46% 30.34 in 10.0 mi ESE 8.1 mph - N/A   Clear
12:53 PM 75.0 °F 50.0 °F 41% 30.34 in 10.0 mi Variable 5.8 mph - N/A   Clear
1:53 PM 73.9 °F 54.0 °F 50% 30.32 in 10.0 mi NNW 8.1 mph - N/A   Clear
2:53 PM 73.9 °F 53.1 °F 48% 30.32 in 10.0 mi NNW 8.1 mph - N/A   Clear
3:53 PM 75.9 °F 51.1 °F 42% 30.31 in 10.0 mi North 6.9 mph - N/A   Clear
4:53 PM 75.9 °F 48.9 °F 38% 30.30 in 10.0 mi North 8.1 mph - N/A   Clear
5:53 PM 75.0 °F 50.0 °F 41% 30.30 in 10.0 mi NNE 8.1 mph - N/A   Clear
6:53 PM 73.9 °F 52.0 °F 46% 30.31 in 10.0 mi Variable 4.6 mph - N/A   Clear
7:53 PM 69.1 °F 55.0 °F 61% 30.31 in 10.0 mi Calm Calm - N/A   Clear
8:53 PM 62.1 °F 55.0 °F 78% 30.32 in 10.0 mi SSW 5.8 mph - N/A   Clear
9:53 PM 59.0 °F 54.0 °F 83% 30.33 in 10.0 mi Variable 4.6 mph - N/A   Clear
10:53 PM 57.0 °F 52.0 °F 83% 30.32 in 10.0 mi Variable 4.6 mph - N/A   Clear
11:53 PM 55.0 °F 52.0 °F 89% 30.32 in 10.0 mi SSW 6.9 mph - N/A   Clear